Wetterstation Vordersexau
Wetterdaten: Jahr 2018
Datum Temp. A. Feuchte A. Luftdruck Regen Wind Richtung Taupunkt Windchill Windben
01.01.2018 8,1 C 74 % 1006,4 hPa 1,6 l/m 21,9 km/h W-SW 3,7 C 1,0 C 12,2 km/h
02.01.2018 6,5 C 78 % 1012,7 hPa 1,0 l/m 15,8 km/h W-SW 2,9 C 0,9 C 8,8 km/h
03.01.2018 9,0 C 77 % 1003,5 hPa 5,7 l/m 23,1 km/h W 5,2 C 2,0 C 12,8 km/h
04.01.2018 9,6 C 83 % 1001,3 hPa 4,7 l/m 21,1 km/h SW 6,9 C 3,2 C 11,7 km/h
05.01.2018 10,2 C 79 % 1001,3 hPa 6,7 l/m 7,2 km/h W-SW 6,7 C 8,1 C 4,0 km/h
06.01.2018 8,6 C 78 % 1004,4 hPa 0,5 l/m 0,3 km/h SO 4,9 C 8,6 C 0,2 km/h
07.01.2018 5,2 C 84 % 1011,9 hPa 0,0 l/m 0,0 km/h N-NO 2,7 C 5,2 C 0,0 km/h
08.01.2018 3,3 C 79 % 1014,4 hPa 0,5 l/m 0,3 km/h O-SO 0,0 C 3,2 C 0,2 km/h
09.01.2018 5,2 C 79 % 1010,0 hPa 0,0 l/m 0,0 km/h W-NW 1,9 C 5,2 C 0,0 km/h
10.01.2018 6,3 C 79 % 1009,5 hPa 0,0 l/m 0,0 km/h O-SO 2,8 C 6,3 C 0,0 km/h
11.01.2018 4,5 C 84 % 1012,7 hPa 1,0 l/m 0,0 km/h W-NW 2,1 C 4,5 C 0,0 km/h
12.01.2018 1,8 C 82 % 1020,7 hPa 0,0 l/m 0,0 km/h NW -0,9 C 1,8 C 0,0 km/h
13.01.2018 1,8 C 78 % 1019,6 hPa 0,0 l/m 2,1 km/h SO -1,8 C 1,2 C 1,1 km/h
14.01.2018 0,6 C 79 % 1017,9 hPa 0,0 l/m 0,0 km/h NO -2,7 C 0,6 C 0,0 km/h
15.01.2018 2,8 C 80 % 1011,7 hPa 0,0 l/m 10,2 km/h W-SW -0,5 C -0,6 C 5,7 km/h
16.01.2018 7,3 C 83 % 999,5 hPa 4,7 l/m 19,1 km/h W 4,6 C 1,1 C 10,6 km/h
17.01.2018 3,8 C 81 % 1006,1 hPa 3,6 l/m 13,1 km/h W-SW 0,7 C -1,4 C 7,3 km/h
18.01.2018 6,3 C 82 % 1006,8 hPa 4,1 l/m 25,4 km/h W 3,5 C -2,0 C 14,1 km/h
19.01.2018 5,3 C 81 % 1009,6 hPa 0,5 l/m 9,3 km/h W 2,3 C 2,1 C 5,2 km/h
20.01.2018 5,2 C 82 % 1004,5 hPa 2,1 l/m 16,7 km/h W 2,3 C -1,1 C 9,3 km/h
21.01.2018 4,4 C 81 % 1011,7 hPa 1,0 l/m 0,8 km/h NO 1,4 C 4,1 C 0,4 km/h
22.01.2018 8,5 C 81 % 1009,9 hPa 6,7 l/m 10,1 km/h NO 5,4 C 5,5 C 5,6 km/h
23.01.2018 6,4 C 80 % 1023,5 hPa 0,5 l/m 1,9 km/h S 3,1 C 5,9 C 1,1 km/h
24.01.2018 10,3 C 76 % 1020,2 hPa 0,0 l/m 6,5 km/h S-SW 6,1 C 8,4 C 3,6 km/h
25.01.2018 11,1 C 67 % 1013,7 hPa 0,0 l/m 10,4 km/h SO 5,0 C 8,1 C 5,8 km/h
26.01.2018 6,8 C 82 % 1015,6 hPa 5,2 l/m 0,1 km/h W-NW 4,0 C 6,8 C 0,0 km/h
27.01.2018 6,2 C 81 % 1027,9 hPa 1,0 l/m 0,0 km/h W-NW 3,2 C 6,2 C 0,0 km/h
28.01.2018 7,7 C 80 % 1033,8 hPa 0,0 l/m 9,6 km/h W 4,4 C 4,7 C 5,4 km/h
29.01.2018 7,5 C 83 % 1030,5 hPa 0,0 l/m 11,2 km/h W 4,7 C 4,0 C 6,2 km/h
30.01.2018 8,4 C 83 % 1026,7 hPa 0,0 l/m 0,3 km/h W-SW 5,6 C 8,4 C 0,2 km/h
31.01.2018 7,7 C 80 % 1012,9 hPa 1,6 l/m 18,2 km/h W-SW 4,4 C 1,4 C 10,1 km/h
02.02.2018 1,4 C 83 % 1005,9 hPa 0,0 l/m 5,0 km/h W-SW -1,2 C -0,6 C 2,8 km/h
03.02.2018 2,1 C 83 % 1005,3 hPa 0,0 l/m 3,3 km/h SO -0,5 C 0,7 C 1,9 km/h
04.02.2018 2,1 C 78 % 1011,9 hPa 0,5 l/m 1,9 km/h SO -1,5 C 1,5 C 1,0 km/h
05.02.2018 1,6 C 82 % 1015,8 hPa 0,0 l/m 0,0 km/h W -1,2 C 1,6 C 0,0 km/h
06.02.2018 1,1 C 81 % 1008,9 hPa 0,0 l/m 0,0 km/h N-NW -1,9 C 1,1 C 0,0 km/h
07.02.2018 0,2 C 85 % 1009,9 hPa 0,0 l/m 0,4 km/h W-SW -2,0 C 0,1 C 0,2 km/h
08.02.2018 1,2 C 84 % 1015,8 hPa 1,0 l/m 0,0 km/h W-SW -1,3 C 1,2 C 0,0 km/h
09.02.2018 2,0 C 82 % 1013,3 hPa 0,0 l/m 2,8 km/h W-NW -0,8 C 1,0 C 1,5 km/h
10.02.2018 2,4 C 80 % 1014,8 hPa 0,0 l/m 7,1 km/h W -0,7 C -0,4 C 4,0 km/h
11.02.2018 3,1 C 79 % 1007,6 hPa 0,0 l/m 11,8 km/h S -0,2 C -1,3 C 6,6 km/h
12.02.2018 1,5 C 78 % 1013,4 hPa 1,0 l/m 0,3 km/h SO -2,0 C 1,4 C 0,2 km/h
13.02.2018 0,8 C 68 % 1011,7 hPa 15,0 l/m 10,0 km/h O-SO -4,8 C -3,2 C 5,6 km/h
14.02.2018 1,0 C 67 % 1013,1 hPa 0,0 l/m 4,5 km/h O-SO -4,9 C -0,3 C 2,5 km/h
15.02.2018 3,6 C 83 % 1014,0 hPa 7,8 l/m 2,4 km/h N-NO 0,9 C 2,8 C 1,3 km/h
16.02.2018 7,2 C 77 % 1021,6 hPa 3,6 l/m 0,4 km/h N-NO 3,3 C 7,1 C 0,2 km/h
17.02.2018 1,4 C 80 % 1016,6 hPa 13,5 l/m 0,3 km/h W -1,7 C 1,4 C 0,2 km/h
18.02.2018 1,1 C 82 % 1022,3 hPa 2,6 l/m 0,8 km/h W -1,7 C 0,7 C 0,4 km/h
19.02.2018 1,5 C 81 % 1016,1 hPa 0,0 l/m 0,0 km/h NO -1,4 C 1,5 C 0,0 km/h
20.02.2018 0,8 C 80 % 1013,1 hPa 0,0 l/m 0,8 km/h N -2,3 C 0,5 C 0,4 km/h
21.02.2018 2,0 C 68 % 1014,9 hPa 0,0 l/m 7,2 km/h N-NO -3,6 C -0,4 C 4,0 km/h
22.02.2018 0,1 C 67 % 1011,8 hPa 0,0 l/m 4,8 km/h N-NO -5,4 C -1,7 C 2,7 km/h
23.02.2018 0,5 C 68 % 1011,2 hPa 0,0 l/m 2,4 km/h N-NO -4,8 C -0,4 C 1,3 km/h
24.02.2018 2,7 C 58 % 1012,1 hPa 0,0 l/m 2,7 km/h NO -5,5 C 2,0 C 1,5 km/h
25.02.2018 -1,2 C 45 % 1017,1 hPa 0,0 l/m 6,4 km/h NO -12,2 C -3,7 C 3,6 km/h
26.02.2018 -5,0 C 47 % 1017,3 hPa 0,0 l/m 3,6 km/h N-NO -14,8 C -6,3 C 2,0 km/h
27.02.2018 -6,6 C 55 % 1013,3 hPa 0,0 l/m 1,8 km/h N -14,3 C -7,1 C 1,0 km/h
28.02.2018 -4,0 C 52 % 1009,6 hPa 0,0 l/m 0,9 km/h O-SO -13,3 C -4,5 C 0,5 km/h
01.03.2018 -1,0 C 55 % 998,8 hPa 0,0 l/m 0,3 km/h S-SW -9,0 C -1,1 C 0,2 km/h
02.03.2018 -0,6 C 74 % 993,2 hPa 0,0 l/m 0,5 km/h S -4,8 C -0,8 C 0,3 km/h
03.03.2018 -0,4 C 85 % 994,6 hPa 3,6 l/m 0,0 km/h W-SW -2,6 C -0,4 C 0,0 km/h
04.03.2018 6,6 C 76 % 995,6 hPa 2,6 l/m 1,0 km/h NO 2,5 C 6,3 C 0,6 km/h
05.03.2018 7,6 C 74 % 992,7 hPa 0,0 l/m 0,0 km/h NO 2,9 C 7,6 C 0,0 km/h
06.03.2018 6,3 C 79 % 989,9 hPa 2,6 l/m 1,1 km/h NO 2,8 C 6,1 C 0,6 km/h
07.03.2018 6,5 C 75 % 996,8 hPa 0,5 l/m 20,2 km/h SW 2,3 C -0,4 C 11,2 km/h
08.03.2018 9,4 C 62 % 1004,1 hPa 0,0 l/m 17,6 km/h S-SW 2,1 C 3,9 C 9,8 km/h
09.03.2018 11,4 C 58 % 1005,9 hPa 0,0 l/m 11,6 km/h S 3,4 C 8,1 C 6,5 km/h
10.03.2018 11,6 C 77 % 1002,5 hPa 1,6 l/m 2,2 km/h S-SO 7,6 C 11,1 C 1,2 km/h
11.03.2018 9,8 C 81 % 995,3 hPa 1,6 l/m 0,1 km/h SO 6,7 C 9,8 C 0,1 km/h
12.03.2018 9,9 C 77 % 996,3 hPa 3,6 l/m 16,2 km/h S-SW 6,0 C 5,3 C 9,0 km/h
13.03.2018 7,4 C 80 % 1005,9 hPa 4,1 l/m 28,0 km/h W-SW 4,2 C -1,0 C 15,6 km/h
14.03.2018 10,2 C 69 % 1007,6 hPa 0,0 l/m 2,2 km/h S 4,1 C 9,9 C 1,2 km/h
15.03.2018 4,8 C 83 % 995,5 hPa 0,5 l/m 3,0 km/h W 2,2 C 4,0 C 1,7 km/h
16.03.2018 9,3 C 74 % 999,4 hPa 0,5 l/m 7,6 km/h O-NO 4,4 C 7,0 C 4,2 km/h
17.03.2018 3,7 C 82 % 994,8 hPa 0,0 l/m 0,9 km/h O-NO 0,9 C 3,5 C 0,5 km/h
18.03.2018 0,5 C 84 % 998,4 hPa 3,1 l/m 1,2 km/h O -1,8 C 0,2 C 0,7 km/h
19.03.2018 1,5 C 80 % 1004,8 hPa 0,0 l/m 0,0 km/h SW -1,6 C 1,5 C 0,0 km/h
20.03.2018 2,7 C 64 % 1013,3 hPa 0,0 l/m 3,5 km/h NO -3,7 C 1,7 C 1,9 km/h
21.03.2018 3,6 C 58 % 1023,0 hPa 0,0 l/m 5,2 km/h NO -4,9 C 2,0 C 2,9 km/h
22.03.2018 1,8 C 71 % 1017,5 hPa 0,5 l/m 8,8 km/h SW -3,3 C -1,5 C 4,9 km/h
23.03.2018 5,2 C 78 % 1006,2 hPa 0,5 l/m 0,3 km/h NO 1,5 C 5,2 C 0,2 km/h
24.03.2018 5,0 C 74 % 998,1 hPa 0,0 l/m 0,9 km/h NO 0,4 C 4,6 C 0,5 km/h
25.03.2018 8,5 C 65 % 1003,3 hPa 0,0 l/m 0,2 km/h NO 1,2 C 8,5 C 0,1 km/h
26.03.2018 6,9 C 72 % 1011,3 hPa 1,6 l/m 0,7 km/h NO 1,8 C 6,8 C 0,4 km/h
27.03.2018 8,2 C 72 % 1011,9 hPa 1,6 l/m 7,6 km/h O-SO 2,9 C 6,0 C 4,2 km/h
28.03.2018 10,0 C 81 % 1004,5 hPa 6,7 l/m 20,1 km/h SW 6,9 C 4,1 C 11,2 km/h
29.03.2018 7,1 C 75 % 1005,4 hPa 0,5 l/m 4,1 km/h N-NO 2,8 C 6,1 C 2,3 km/h
30.03.2018 6,7 C 78 % 999,9 hPa 2,6 l/m 2,8 km/h NO 3,0 C 6,0 C 1,6 km/h
31.03.2018 8,7 C 70 % 998,0 hPa 0,0 l/m 0,4 km/h O-NO 3,0 C 8,6 C 0,2 km/h
01.04.2018 6,0 C 82 % 1008,9 hPa 2,6 l/m 17,7 km/h SW 3,2 C 0,0 C 9,8 km/h
02.04.2018 8,5 C 70 % 1007,3 hPa 0,5 l/m 1,3 km/h NO 2,9 C 8,3 C 0,7 km/h
03.04.2018 15,2 C 57 % 1003,1 hPa 0,0 l/m 3,1 km/h W-SW 6,0 C 14,7 C 1,7 km/h
04.04.2018 12,8 C 71 % 1003,5 hPa 2,1 l/m 5,5 km/h S-SO 7,3 C 11,3 C 3,0 km/h
05.04.2018 10,6 C 71 % 1012,6 hPa 1,0 l/m 15,2 km/h SW 5,4 C 6,4 C 8,5 km/h
06.04.2018 10,8 C 67 % 1015,3 hPa 0,0 l/m 2,6 km/h W 4,2 C 10,4 C 1,5 km/h
07.04.2018 15,0 C 60 % 1009,5 hPa 0,0 l/m 0,3 km/h NO 5,9 C 15,0 C 0,2 km/h
08.04.2018 17,0 C 62 % 1004,2 hPa 0,0 l/m 1,2 km/h NO 8,8 C 16,9 C 0,7 km/h
09.04.2018 15,0 C 67 % 1001,8 hPa 0,5 l/m 4,5 km/h NO 8,6 C 14,3 C 2,5 km/h
10.04.2018 10,6 C 80 % 1002,1 hPa 1,0 l/m 3,9 km/h N-NO 7,1 C 9,6 C 2,2 km/h
11.04.2018 12,9 C 60 % 1001,5 hPa 0,0 l/m 3,7 km/h NO 4,5 C 12,4 C 2,0 km/h
12.04.2018 14,8 C 61 % 996,7 hPa 0,0 l/m 5,6 km/h W-SW 6,4 C 13,7 C 3,1 km/h
13.04.2018 12,4 C 70 % 1006,4 hPa 0,0 l/m 4,1 km/h O-NO 6,4 C 11,2 C 2,3 km/h
14.04.2018 13,6 C 66 % 1015,2 hPa 0,0 l/m 1,0 km/h O-NO 6,8 C 13,6 C 0,6 km/h
15.04.2018 15,9 C 68 % 1010,6 hPa 3,1 l/m 1,3 km/h N-NW 9,5 C 15,8 C 0,7 km/h
16.04.2018 16,2 C 67 % 1012,5 hPa 0,5 l/m 0,8 km/h SO 9,6 C 16,1 C 0,5 km/h
17.04.2018 17,3 C 62 % 1021,3 hPa 0,0 l/m 1,2 km/h O-NO 8,9 C 17,2 C 0,7 km/h
18.04.2018 19,4 C 52 % 1025,0 hPa 0,0 l/m 2,6 km/h NO 7,4 C 19,4 C 1,4 km/h
19.04.2018 18,4 C 55 % 1023,1 hPa 0,0 l/m 0,2 km/h O-NO 8,3 C 18,4 C 0,1 km/h
20.04.2018 19,5 C 53 % 1019,9 hPa 0,0 l/m 0,1 km/h NO 9,0 C 19,5 C 0,1 km/h
21.04.2018 20,1 C 55 % 1016,2 hPa 0,0 l/m 0,0 km/h O-NO 9,9 C 20,1 C 0,0 km/h
22.04.2018 20,5 C 54 % 1012,5 hPa 0,0 l/m 0,9 km/h NO 9,7 C 20,5 C 0,5 km/h
23.04.2018 15,8 C 75 % 1015,0 hPa 5,2 l/m 0,0 km/h NO 11,2 C 15,8 C 0,0 km/h
24.04.2018 17,0 C 67 % 1015,6 hPa 0,0 l/m 1,4 km/h NO 10,3 C 16,8 C 0,8 km/h
25.04.2018 16,7 C 66 % 1011,8 hPa 0,0 l/m 11,1 km/h NO 9,8 C 14,9 C 6,2 km/h
26.04.2018 12,6 C 67 % 1016,4 hPa 3,1 l/m 2,0 km/h N-NW 6,2 C 12,3 C 1,1 km/h
27.04.2018 13,9 C 60 % 1009,6 hPa 0,0 l/m 3,8 km/h NO 5,7 C 13,4 C 2,1 km/h
28.04.2018 14,3 C 68 % 1009,8 hPa 1,6 l/m 1,4 km/h N-NW 8,3 C 14,2 C 0,8 km/h
29.04.2018 15,3 C 77 % 1002,1 hPa 0,5 l/m 1,5 km/h W-SW 11,2 C 15,1 C 0,8 km/h
30.04.2018 14,4 C 56 % 1004,0 hPa 0,0 l/m 21,9 km/h S-SW 5,3 C 9,1 C 12,1 km/h
01.05.2018 11,8 C 61 % 1010,7 hPa 0,0 l/m 5,1 km/h N-NO 4,3 C 10,3 C 2,8 km/h
02.05.2018 11,8 C 66 % 1009,2 hPa 0,0 l/m 2,1 km/h N-NW 5,6 C 11,4 C 1,2 km/h
03.05.2018 13,3 C 74 % 1011,4 hPa 0,5 l/m 1,4 km/h O-SO 8,5 C 13,0 C 0,8 km/h
04.05.2018 17,3 C 62 % 1013,4 hPa 0,0 l/m 2,3 km/h N-NO 9,8 C 17,2 C 1,3 km/h
05.05.2018 18,9 C 58 % 1015,0 hPa 0,0 l/m 2,9 km/h NO 10,2 C 18,7 C 1,6 km/h
06.05.2018 20,1 C 58 % 1015,4 hPa 0,0 l/m 3,0 km/h NO 10,7 C 19,8 C 1,6 km/h
07.05.2018 19,1 C 51 % 1012,2 hPa 0,0 l/m 2,7 km/h O-NO 8,0 C 18,9 C 1,5 km/h
08.05.2018 19,5 C 53 % 1006,1 hPa 0,0 l/m 0,7 km/h NO 9,2 C 19,5 C 0,4 km/h
09.05.2018 17,8 C 59 % 1003,7 hPa 0,0 l/m 0,0 km/h O-NO 9,5 C 17,8 C 0,0 km/h
10.05.2018 12,4 C 80 % 1010,3 hPa 20,7 l/m 1,4 km/h SO 9,1 C 12,1 C 0,8 km/h
11.05.2018 14,9 C 73 % 1014,8 hPa 0,0 l/m 0,9 km/h O-NO 9,8 C 14,8 C 0,5 km/h
12.05.2018 18,0 C 72 % 1010,5 hPa 0,0 l/m 0,0 km/h O-NO 12,6 C 18,0 C 0,0 km/h
13.05.2018 12,6 C 81 % 1008,6 hPa 4,1 l/m 0,9 km/h W-SW 9,5 C 12,4 C 0,5 km/h
14.05.2018 11,2 C 81 % 1007,4 hPa 14,0 l/m 0,0 km/h W-SW 8,0 C 11,2 C 0,0 km/h
15.05.2018 13,5 C 78 % 1009,5 hPa 4,7 l/m 0,0 km/h SW 9,7 C 13,5 C 0,0 km/h
16.05.2018 12,1 C 78 % 1012,4 hPa 13,5 l/m 0,0 km/h O 8,3 C 12,1 C 0,0 km/h
17.05.2018 13,6 C 75 % 1015,5 hPa 4,1 l/m 0,0 km/h N-NO 9,2 C 13,6 C 0,0 km/h
18.05.2018 11,5 C 81 % 1008,2 hPa 4,1 l/m 0,0 km/h SW 8,3 C 11,5 C 0,0 km/h
19.05.2018 13,5 C 78 % 1009,5 hPa 4,7 l/m 0,0 km/h SW 9,7 C 13,5 C 0,0 km/h
20.05.2018 12,1 C 78 % 1012,4 hPa 13,5 l/m 0,0 km/h O 8,3 C 12,1 C 0,0 km/h
21.05.2018 13,6 C 75 % 1015,5 hPa 4,1 l/m 0,0 km/h N-NO 9,2 C 13,6 C 0,0 km/h
22.05.2018 16,6 C 75 % 1010,6 hPa 1,0 l/m 0,0 km/h SO 12,0 C 16,6 C 0,0 km/h
23.05.2018 16,6 C 81 % 1014,0 hPa 1,0 l/m 0,0 km/h O-SO 13,2 C 16,6 C 0,0 km/h
24.05.2018 18,6 C 69 % 1014,7 hPa 10,9 l/m 0,0 km/h SO 12,7 C 18,6 C 0,0 km/h
25.05.2018 20,2 C 69 % 1014,5 hPa 0,0 l/m 0,0 km/h N-NW 14,0 C 20,2 C 0,0 km/h
26.05.2018 21,3 C 70 % 1015,6 hPa 0,0 l/m 0,0 km/h O-NO 15,4 C 21,3 C 0,0 km/h
27.05.2018 22,5 C 68 % 1014,3 hPa 0,0 l/m 0,0 km/h O-NO 16,1 C 22,5 C 0,0 km/h
28.05.2018 22,0 C 74 % 1012,6 hPa 0,0 l/m 0,5 km/h N-NW 17,0 C 22,0 C 0,3 km/h
29.05.2018 20,2 C 73 % 1012,0 hPa 0,0 l/m 3,3 km/h W-SW 15,2 C 19,8 C 1,9 km/h
30.05.2018 21,2 C 70 % 1010,9 hPa 2,1 l/m 0,4 km/h SO 15,2 C 21,2 C 0,2 km/h
31.05.2018 19,9 C 77 % 1012,4 hPa 10,9 l/m 3,2 km/h W-SW 15,6 C 19,3 C 1,8 km/h
01.06.2018 18,7 C 73 % 1016,0 hPa 7,3 l/m 3,1 km/h O-NO 13,6 C 18,4 C 1,7 km/h
02.06.2018 19,6 C 71 % 1016,2 hPa 0,0 l/m 2,1 km/h O-NO 13,8 C 19,4 C 1,2 km/h
03.06.2018 20,1 C 76 % 1013,2 hPa 5,7 l/m 2,8 km/h O-NO 15,6 C 19,9 C 1,6 km/h
04.06.2018 21,3 C 75 % 1007,5 hPa 0,0 l/m 2,7 km/h N-NO 16,5 C 21,0 C 1,5 km/h
05.06.2018 20,0 C 79 % 1007,1 hPa 1,0 l/m 1,4 km/h O-NO 16,1 C 19,8 C 0,8 km/h
06.06.2018 20,4 C 77 % 1008,9 hPa 0,5 l/m 1,2 km/h O-NO 16,2 C 20,4 C 0,7 km/h
07.06.2018 20,1 C 77 % 1012,2 hPa 3,1 l/m 2,2 km/h W-SW 15,9 C 19,8 C 1,2 km/h
08.06.2018 19,7 C 79 % 1009,8 hPa 3,1 l/m 0,8 km/h SO 15,8 C 19,6 C 0,5 km/h
09.06.2018 20,4 C 76 % 1009,7 hPa 0,0 l/m 0,7 km/h SO 15,9 C 20,3 C 0,4 km/h
10.06.2018 22,3 C 74 % 1009,0 hPa 0,0 l/m 0,6 km/h O-NO 17,3 C 22,3 C 0,3 km/h
11.06.2018 19,9 C 81 % 1007,3 hPa 4,1 l/m 1,8 km/h O-NO 16,6 C 19,7 C 1,0 km/h
12.06.2018 18,7 C 78 % 1006,6 hPa 0,5 l/m 3,3 km/h O-NO 14,8 C 18,1 C 1,8 km/h
13.06.2018 16,1 C 74 % 1010,9 hPa 0,0 l/m 3,0 km/h N 11,3 C 15,7 C 1,7 km/h
14.06.2018 16,0 C 68 % 1013,8 hPa 0,0 l/m 2,6 km/h SO 9,8 C 15,6 C 1,4 km/h
15.06.2018 18,7 C 69 % 1013,6 hPa 0,0 l/m 1,4 km/h N-NW 12,5 C 18,5 C 0,8 km/h
16.06.2018 20,2 C 65 % 1012,9 hPa 0,0 l/m 0,7 km/h O-NO 13,0 C 20,1 C 0,4 km/h
17.06.2018 19,9 C 67 % 1016,1 hPa 0,0 l/m 1,5 km/h O-SO 13,4 C 19,7 C 0,8 km/h
18.06.2018 19,9 C 65 % 1019,8 hPa 0,0 l/m 0,4 km/h N-NO 12,7 C 19,9 C 0,2 km/h
19.06.2018 21,1 C 66 % 1021,1 hPa 0,0 l/m 2,1 km/h SO 14,2 C 21,0 C 1,2 km/h
20.06.2018 22,9 C 68 % 1017,3 hPa 0,0 l/m 0,7 km/h O-NO 16,3 C 22,9 C 0,4 km/h
21.06.2018 22,1 C 63 % 1015,2 hPa 0,0 l/m 2,0 km/h NO 14,3 C 21,8 C 1,1 km/h
22.06.2018 15,0 C 55 % 1022,4 hPa 0,0 l/m 2,9 km/h N-NO 6,0 C 14,5 C 1,6 km/h
23.06.2018 15,2 C 63 % 1022,0 hPa 0,0 l/m 2,5 km/h O-SO 7,8 C 14,8 C 1,4 km/h
24.06.2018 16,3 C 66 % 1018,5 hPa 0,0 l/m 2,0 km/h N-NW 9,5 C 16,1 C 1,1 km/h
25.06.2018 18,3 C 63 % 1018,8 hPa 0,0 l/m 3,5 km/h O-NO 10,6 C 17,8 C 2,0 km/h
26.06.2018 19,4 C 63 % 1019,1 hPa 0,0 l/m 1,6 km/h N-NO 11,7 C 19,3 C 0,9 km/h
27.06.2018 21,2 C 55 % 1017,3 hPa 0,0 l/m 4,7 km/h NO 11,1 C 20,8 C 2,6 km/h
28.06.2018 20,5 C 52 % 1015,3 hPa 0,0 l/m 3,0 km/h NO 10,3 C 20,2 C 1,7 km/h
29.06.2018 22,7 C 61 % 1011,9 hPa 0,0 l/m 2,3 km/h NO 14,6 C 22,5 C 1,3 km/h
30.06.2018 24,4 C 61 % 1009,4 hPa 0,0 l/m 3,4 km/h N-NW 15,8 C 24,3 C 1,9 km/h
01.07.2018 24,0 C 52 % 1009,3 hPa 0,0 l/m 0,8 km/h W 13,2 C 23,9 C 0,5 km/h
02.07.2018 23,8 C 51 % 1009,6 hPa 0,0 l/m 1,9 km/h N-NW 12,6 C 23,6 C 1,0 km/h
03.07.2018 21,5 C 66 % 1012,7 hPa 0,5 l/m 0,0 km/h N 14,8 C 21,5 C 0,0 km/h
04.07.2018 23,0 C 67 % 1012,4 hPa 1,6 l/m 0,3 km/h O-SO 16,2 C 23,0 C 0,2 km/h
05.07.2018 19,5 C 78 % 1012,4 hPa 2,1 l/m 0,9 km/h W-SW 15,6 C 19,4 C 0,5 km/h
06.07.2018 19,2 C 75 % 1016,3 hPa 14,0 l/m 0,1 km/h W 14,5 C 19,2 C 0,1 km/h
07.07.2018 21,3 C 67 % 1019,0 hPa 0,0 l/m 1,9 km/h O-NO 14,4 C 21,2 C 1,1 km/h
08.07.2018 21,5 C 62 % 1018,3 hPa 0,0 l/m 1,4 km/h O-NO 13,2 C 21,3 C 0,8 km/h
09.07.2018 20,9 C 58 % 1016,6 hPa 0,0 l/m 1,4 km/h O-NO 11,8 C 20,8 C 0,7 km/h
10.07.2018 18,7 C 66 % 1014,2 hPa 0,0 l/m 0,1 km/h NO 12,0 C 18,7 C 0,1 km/h
11.07.2018 17,4 C 63 % 1014,2 hPa 0,0 l/m 1,0 km/h N-NO 10,0 C 17,3 C 0,6 km/h
12.07.2018 18,9 C 63 % 1014,9 hPa 0,0 l/m 2,8 km/h N 11,1 C 18,7 C 1,5 km/h
13.07.2018 21,5 C 58 % 1015,9 hPa 0,0 l/m 1,6 km/h O-NO 12,1 C 21,4 C 0,9 km/h
14.07.2018 22,9 C 57 % 1014,8 hPa 0,0 l/m 1,9 km/h O-SO 13,1 C 22,7 C 1,1 km/h
15.07.2018 22,2 C 66 % 1012,6 hPa 1,6 l/m 2,0 km/h SO 15,3 C 22,2 C 1,1 km/h
16.07.2018 22,6 C 61 % 1010,4 hPa 0,0 l/m 2,3 km/h N-NO 14,0 C 22,4 C 1,3 km/h
17.07.2018 22,5 C 59 % 1012,7 hPa 0,0 l/m 2,6 km/h O-NO 13,7 C 22,3 C 1,5 km/h
18.07.2018 23,0 C 59 % 1013,9 hPa 0,0 l/m 0,3 km/h SO 13,9 C 23,0 C 0,2 km/h
19.07.2018 23,6 C 53 % 1013,0 hPa 0,0 l/m 3,6 km/h O 12,6 C 23,5 C 2,0 km/h
20.07.2018 21,9 C 62 % 1010,6 hPa 1,6 l/m 0,5 km/h O 13,6 C 21,9 C 0,3 km/h
21.07.2018 19,5 C 76 % 1010,1 hPa 7,3 l/m 3,4 km/h W-SW 15,2 C 19,0 C 1,9 km/h
22.07.2018 19,9 C 76 % 1012,0 hPa 0,0 l/m 0,3 km/h O-NO 15,5 C 19,9 C 0,2 km/h
23.07.2018 22,1 C 70 % 1013,8 hPa 0,0 l/m 0,7 km/h O-NO 16,1 C 22,1 C 0,4 km/h
24.07.2018 24,8 C 61 % 1010,9 hPa 0,0 l/m 2,8 km/h O 16,0 C 24,7 C 1,5 km/h
25.07.2018 24,8 C 61 % 1011,3 hPa 1,6 l/m 0,1 km/h O-SO 16,2 C 24,8 C 0,1 km/h
26.07.2018 25,6 C 55 % 1010,7 hPa 0,0 l/m 1,3 km/h NO 14,3 C 25,6 C 0,7 km/h
27.07.2018 26,0 C 52 % 1008,9 hPa 0,0 l/m 0,3 km/h O-NO 14,8 C 26,0 C 0,2 km/h
28.07.2018 23,2 C 64 % 1009,0 hPa 0,0 l/m 9,3 km/h SO 16,0 C 22,4 C 5,2 km/h
29.07.2018 24,5 C 59 % 1011,9 hPa 0,0 l/m 0,4 km/h O-SO 15,0 C 24,5 C 0,2 km/h
30.07.2018 26,4 C 50 % 1012,7 hPa 0,0 l/m 1,9 km/h O-SO 13,9 C 26,4 C 1,0 km/h
31.07.2018 27,1 C 50 % 1013,5 hPa 0,0 l/m 2,0 km/h O 15,2 C 27,1 C 1,1 km/h
01.08.2018 25,4 C 59 % 1016,0 hPa 3,6 l/m 3,0 km/h O-NO 16,6 C 25,3 C 1,7 km/h
02.08.2018 24,8 C 66 % 1017,9 hPa 0,5 l/m 2,8 km/h O-NO 17,5 C 24,8 C 1,6 km/h
03.08.2018 27,8 C 58 % 1015,5 hPa 0,0 l/m 0,6 km/h N-NO 17,9 C 27,8 C 0,4 km/h
04.08.2018 28,3 C 54 % 1014,2 hPa 0,0 l/m 0,7 km/h O-NO 17,1 C 28,3 C 0,4 km/h
05.08.2018 26,6 C 56 % 1014,8 hPa 0,0 l/m 2,5 km/h O-SO 16,6 C 26,6 C 1,4 km/h
06.08.2018 26,7 C 55 % 1012,6 hPa 0,0 l/m 0,7 km/h O-SO 16,2 C 26,7 C 0,4 km/h
07.08.2018 27,6 C 53 % 1009,6 hPa 0,0 l/m 4,6 km/h SO 16,5 C 27,5 C 2,6 km/h
08.08.2018 25,9 C 59 % 1011,0 hPa 8,8 l/m 4,6 km/h O-NO 16,7 C 25,6 C 2,5 km/h
09.08.2018 22,6 C 69 % 1012,0 hPa 0,0 l/m 8,9 km/h O-NO 16,3 C 21,5 C 4,9 km/h
10.08.2018 20,2 C 61 % 1020,5 hPa 1,0 l/m 4,4 km/h W-SW 11,4 C 19,7 C 2,4 km/h
11.08.2018 19,7 C 56 % 1020,6 hPa 0,0 l/m 2,0 km/h O-SO 9,9 C 19,5 C 1,1 km/h
12.08.2018 21,2 C 53 % 1013,5 hPa 0,0 l/m 2,1 km/h O-NO 10,1 C 21,1 C 1,1 km/h
13.08.2018 20,1 C 70 % 1008,7 hPa 2,6 l/m 4,3 km/h SO 14,5 C 19,7 C 2,4 km/h
14.08.2018 20,6 C 67 % 1013,4 hPa 0,0 l/m 1,3 km/h NO 13,8 C 20,6 C 0,7 km/h
15.08.2018 21,1 C 63 % 1017,0 hPa 0,0 l/m 0,6 km/h O 13,1 C 21,0 C 0,3 km/h
16.08.2018 22,6 C 61 % 1013,2 hPa 0,0 l/m 1,4 km/h O-NO 13,8 C 22,5 C 0,8 km/h
17.08.2018 22,8 C 62 % 1012,8 hPa 9,3 l/m 3,3 km/h SO 14,6 C 22,6 C 1,8 km/h
18.08.2018 21,2 C 71 % 1018,3 hPa 0,0 l/m 0,8 km/h SO 15,5 C 21,1 C 0,4 km/h
19.08.2018 22,9 C 63 % 1018,0 hPa 0,0 l/m 2,3 km/h O 14,9 C 22,8 C 1,3 km/h
20.08.2018 23,1 C 61 % 1016,7 hPa 0,0 l/m 1,0 km/h N-NO 14,4 C 23,0 C 0,6 km/h
21.08.2018 24,0 C 63 % 1015,6 hPa 0,0 l/m 2,9 km/h NW 15,9 C 23,9 C 1,6 km/h
22.08.2018 25,2 C 59 % 1013,5 hPa 0,0 l/m 0,7 km/h O 15,9 C 25,2 C 0,4 km/h
23.08.2018 23,7 C 63 % 1011,3 hPa 7,8 l/m 2,9 km/h O-SO 15,6 C 23,6 C 1,6 km/h
24.08.2018 18,0 C 78 % 1011,6 hPa 2,1 l/m 2,0 km/h SO 13,9 C 17,7 C 1,1 km/h
25.08.2018 13,3 C 82 % 1012,4 hPa 7,3 l/m 0,7 km/h SO 10,3 C 13,2 C 0,4 km/h
26.08.2018 14,4 C 66 % 1014,7 hPa 0,0 l/m 0,6 km/h O-SO 7,7 C 14,3 C 0,3 km/h
27.08.2018 18,9 C 62 % 1013,4 hPa 0,0 l/m 4,3 km/h SO 10,9 C 18,4 C 2,4 km/h
28.08.2018 20,4 C 71 % 1015,1 hPa 0,0 l/m 0,2 km/h N-NO 14,5 C 20,4 C 0,1 km/h
29.08.2018 19,9 C 73 % 1012,0 hPa 5,7 l/m 3,4 km/h O 14,8 C 19,6 C 1,9 km/h
30.08.2018 17,9 C 74 % 1017,4 hPa 1,6 l/m 1,6 km/h NO 13,0 C 17,6 C 0,9 km/h
31.08.2018 13,6 C 75 % 1017,5 hPa 21,2 l/m 0,2 km/h NW 9,2 C 13,6 C 0,1 km/h
01.09.2018 16,1 C 68 % 1019,8 hPa 0,5 l/m 0,7 km/h NW 10,0 C 16,0 C 0,4 km/h
02.09.2018 15,4 C 79 % 1017,9 hPa 0,0 l/m 1,6 km/h N-NO 11,6 C 15,0 C 0,9 km/h
03.09.2018 16,3 C 79 % 1014,0 hPa 0,0 l/m 0,0 km/h N 12,6 C 16,3 C 0,0 km/h
04.09.2018 18,0 C 74 % 1013,3 hPa 0,0 l/m 0,0 km/h SO 13,0 C 18,0 C 0,0 km/h
05.09.2018 20,3 C 71 % 1012,9 hPa 0,0 l/m 0,5 km/h SO 14,6 C 20,2 C 0,3 km/h
06.09.2018 19,0 C 74 % 1009,9 hPa 4,1 l/m 2,5 km/h SO 14,2 C 18,7 C 1,4 km/h
07.09.2018 17,9 C 74 % 1013,1 hPa 0,0 l/m 1,0 km/h O-SO 13,0 C 17,7 C 0,6 km/h
08.09.2018 17,4 C 70 % 1017,8 hPa 0,0 l/m 0,2 km/h O 11,5 C 17,4 C 0,1 km/h
09.09.2018 18,4 C 64 % 1018,6 hPa 0,0 l/m 0,8 km/h O-NO 10,6 C 18,4 C 0,5 km/h
10.09.2018 19,8 C 60 % 1020,2 hPa 0,0 l/m 0,0 km/h O-NO 11,1 C 19,8 C 0,0 km/h
11.09.2018 21,2 C 61 % 1021,7 hPa 0,0 l/m 0,0 km/h O-NO 12,7 C 21,2 C 0,0 km/h
12.09.2018 22,0 C 62 % 1018,1 hPa 3,1 l/m 1,5 km/h O-SO 13,5 C 22,0 C 0,8 km/h
13.09.2018 19,6 C 76 % 1015,6 hPa 2,1 l/m 0,9 km/h O-SO 15,1 C 19,4 C 0,5 km/h
14.09.2018 18,3 C 78 % 1017,0 hPa 1,6 l/m 1,0 km/h SO 14,4 C 18,2 C 0,6 km/h
15.09.2018 17,7 C 67 % 1020,9 hPa 0,5 l/m 1,8 km/h O-NO 11,0 C 17,5 C 1,0 km/h
16.09.2018 17,1 C 70 % 1019,1 hPa 0,0 l/m 0,1 km/h O-NO 11,2 C 17,1 C 0,0 km/h
17.09.2018 20,0 C 63 % 1016,6 hPa 0,0 l/m 1,0 km/h O-NO 11,9 C 19,9 C 0,5 km/h
18.09.2018 20,6 C 65 % 1014,3 hPa 0,5 l/m 1,8 km/h O 13,4 C 20,5 C 1,0 km/h
19.09.2018 21,1 C 66 % 1017,0 hPa 0,0 l/m 0,0 km/h O-NO 14,0 C 21,1 C 0,0 km/h
20.09.2018 21,9 C 63 % 1015,8 hPa 0,0 l/m 0,0 km/h O-NO 14,0 C 21,9 C 0,0 km/h
21.09.2018 18,2 C 69 % 1012,3 hPa 2,6 l/m 4,0 km/h O-SO 12,0 C 17,6 C 2,2 km/h
22.09.2018 14,2 C 72 % 1019,9 hPa 0,0 l/m 0,5 km/h O-SO 8,9 C 14,2 C 0,3 km/h
23.09.2018 18,7 C 71 % 1013,7 hPa 14,0 l/m 18,7 km/h SW 13,2 C 15,9 C 10,4 km/h
24.09.2018 12,3 C 66 % 1028,5 hPa 0,0 l/m 0,0 km/h N 5,7 C 12,3 C 0,0 km/h
25.09.2018 11,4 C 61 % 1031,8 hPa 0,0 l/m 0,0 km/h NO 3,5 C 11,4 C 0,0 km/h
26.09.2018 8,8 C 67 % 1031,2 hPa 0,0 l/m 0,0 km/h O-NO 2,8 C 8,8 C 0,0 km/h
Min-Datum 28.02.18 18.04.18 06.03.18 110 Tage 01.01.18 - 28.02.18 14.02.18 01.01.18
Min-Zeit 05:53 15:53 03:53 - 14:53 - 05:53 07:53 14:53
Minimum -13,4 C 21 % 988,7 hPa - 0,0 km/h - -17,0 C -16,7 C 0,0 km/h
Max-Datum 04.08.18 03.02.18 28.01.18 31.08.18 13.03.18 - 03.08.18 04.08.18 13.03.18
Max-Zeit 16:53 23:53 11:53 14:53 06:53 - 10:53 16:53 06:53
Maximum 36,1 C 87 % 1034,8 hPa 21,2 l/m 81,6 km/h
W-SW
- 20,5 C 36,1 C 45,4 km/h
W-SW
Durchschnitt 14,1 C 69 % 1012,1 hPa #428,9 l/m 3,3 km/h O-NO 8,1 C 13,3 C 1,8 km/h

Durchschnitt Minimum Temp.8,8 C
Durchschnitt Maximum Temp.20,6 C
www.sexauwetter.de